| time (UTC) | temp F | wind direction | speed MPH | gust MPH | rain 1hr in | rain 24hr in | rain mn in | humidity % | barometer mb |
| 20260503190955 | 72 | 43 | 2.0 | 2.0 | 0.00 | 0.00 | 0.00 | 44 | 1018.7 |
| 20260503185452 | 71 | 12 | 1.0 | 2.0 | 0.00 | 0.00 | 0.00 | 45 | 1019.1 |
| 20260503183950 | 72 | 28 | 3.0 | 3.0 | 0.00 | 0.00 | 0.00 | 45 | 1019.2 |
| 20260503182449 | 71 | 13 | 3.0 | 5.0 | 0.00 | 0.00 | 0.00 | 50 | 1019.1 |
| 20260503180944 | 71 | 16 | 5.0 | 7.0 | 0.00 | 0.00 | 0.00 | 50 | 1019.4 |
| 20260503175443 | 71 | 215 | 3.0 | 3.0 | 0.00 | 0.00 | 0.00 | 47 | 1019.6 |
| 20260503173943 | 68 | 17 | 3.0 | 5.0 | 0.00 | 0.00 | 0.00 | 52 | 1019.6 |
| 20260503172440 | 67 | 32 | 3.0 | 5.0 | 0.00 | 0.00 | 0.00 | 53 | 1019.8 |
| 20260503170936 | 67 | 33 | 6.0 | 9.0 | 0.00 | 0.00 | 0.00 | 54 | 1019.7 |
| 20260503150912 | 61 | 52 | 0.0 | 0.0 | 0.00 | 0.00 | 0.00 | 62 | 1020.6 |
| 20260503130846 | 49 | 202 | 1.0 | 1.0 | 0.00 | 0.00 | 0.00 | 88 | 1020.4 |
| 20260503080807 | 53 | 223 | 2.0 | 2.0 | 0.00 | 0.00 | 0.00 | 79 | 1020.4 |
| 20260503072304 | 54 | 104 | 1.0 | 1.0 | 0.00 | 0.00 | 0.00 | 76 | 1020.4 |
| 20260503070757 | 55 | 203 | 1.0 | 1.0 | 0.00 | 0.00 | 0.00 | 76 | 1020.3 |
| 20260503053737 | 62 | 266 | 1.0 | 1.0 | 0.00 | 0.00 | 0.00 | 58 | 1019.8 |
| 20260503052235 | 64 | 12 | 1.0 | 1.0 | 0.00 | 0.00 | 0.00 | 53 | 1020.1 |
| 20260503050730 | 64 | 188 | 2.0 | 2.0 | 0.00 | 0.00 | 0.00 | 52 | 1020.0 |
| 20260503045228 | 63 | 186 | 3.0 | 3.0 | 0.00 | 0.00 | 0.00 | 57 | 1020.0 |
| 20260503043724 | 66 | 11 | 0.0 | 0.0 | 0.00 | 0.00 | 0.00 | 49 | 1019.6 |
| 20260503042220 | 65 | 187 | 1.0 | 2.0 | 0.00 | 0.00 | 0.00 | 50 | 1019.6 |
| 20260503040717 | 66 | 192 | 1.0 | 1.0 | 0.00 | 0.00 | 0.00 | 49 | 1019.5 |
| 20260503035215 | 68 | 178 | 2.0 | 2.0 | 0.00 | 0.00 | 0.00 | 44 | 1019.2 |
| 20260503033712 | 69 | 156 | 1.0 | 1.0 | 0.00 | 0.00 | 0.00 | 43 | 1019.3 |
| 20260503032212 | 70 | 186 | 0.0 | 1.0 | 0.00 | 0.00 | 0.00 | 44 | 1019.0 |
| 20260503030708 | 69 | 41 | 0.0 | 0.0 | 0.00 | 0.00 | 0.00 | 42 | 1019.1 |
| 20260503025205 | 71 | 28 | 0.0 | 1.0 | 0.00 | 0.00 | 0.00 | 41 | 1019.1 |
| 20260503023701 | 71 | 31 | 1.0 | 1.0 | 0.00 | 0.00 | 0.00 | 41 | 1018.9 |
| 20260503022159 | 73 | 350 | 0.0 | 1.0 | 0.00 | 0.00 | 0.00 | 36 | 1019.0 |
| 20260503020656 | 74 | 11 | 2.0 | 2.0 | 0.00 | 0.00 | 0.00 | 36 | 1018.9 |
| 20260503015153 | 74 | 34 | 2.0 | 2.0 | 0.00 | 0.00 | 0.00 | 35 | 1019.0 |
| 20260503013649 | 74 | 33 | 1.0 | 2.0 | 0.00 | 0.00 | 0.00 | 35 | 1019.1 |
| 20260503012146 | 76 | 33 | 0.0 | 0.0 | 0.00 | 0.00 | 0.00 | 35 | 1019.2 |
| 20260503010641 | 76 | 18 | 3.0 | 3.0 | 0.00 | 0.00 | 0.00 | 34 | 1019.3 |
| 20260503005139 | 76 | 5 | 4.0 | 5.0 | 0.00 | 0.00 | 0.00 | 32 | 1019.5 |
| 20260503003636 | 75 | 6 | 3.0 | 3.0 | 0.00 | 0.00 | 0.00 | 33 | 1019.3 |
| 20260503002133 | 75 | 56 | 4.0 | 6.0 | 0.00 | 0.00 | 0.00 | 33 | 1019.3 |
| 20260503000629 | 76 | 309 | 2.0 | 2.0 | 0.00 | 0.00 | 0.00 | 34 | 1019.7 |
| 20260502235126 | 76 | 338 | 2.0 | 3.0 | 0.00 | 0.00 | 0.00 | 35 | 1019.6 |
| 20260502233621 | 77 | 31 | 2.0 | 3.0 | 0.00 | 0.00 | 0.00 | 35 | 1020.0 |
| 20260502232117 | 77 | 29 | 2.0 | 3.0 | 0.00 | 0.00 | 0.00 | 35 | 1020.1 |
| 20260502230615 | 76 | 58 | 3.0 | 5.0 | 0.00 | 0.00 | 0.00 | 41 | 1020.4 |
| 20260502225112 | 76 | 339 | 4.0 | 6.0 | 0.00 | 0.00 | 0.00 | 37 | 1020.7 |
| 20260502223609 | 75 | 340 | 2.0 | 2.0 | 0.00 | 0.00 | 0.00 | 38 | 1021.0 |
| 20260502222106 | 74 | 40 | 4.0 | 8.0 | 0.00 | 0.00 | 0.00 | 46 | 1021.2 |
| 20260502220601 | 73 | 17 | 4.0 | 5.0 | 0.00 | 0.00 | 0.00 | 48 | 1021.4 |
| 20260502215058 | 73 | 4 | 1.0 | 1.0 | 0.00 | 0.00 | 0.00 | 47 | 1021.3 |
| 20260502213555 | 72 | 265 | 4.0 | 5.0 | 0.00 | 0.00 | 0.00 | 48 | 1021.5 |
| 20260502212055 | 71 | 34 | 4.0 | 6.0 | 0.00 | 0.00 | 0.00 | 52 | 1021.6 |
| 20260502210550 | 71 | 24 | 5.0 | 6.0 | 0.00 | 0.00 | 0.00 | 51 | 1021.7 |
| 20260502205047 | 72 | 331 | 4.0 | 5.0 | 0.00 | 0.00 | 0.00 | 52 | 1021.9 |
| 20260502203544 | 72 | 24 | 1.0 | 2.0 | 0.00 | 0.00 | 0.00 | 51 | 1021.9 |
| 20260502202042 | 71 | 23 | 2.0 | 3.0 | 0.00 | 0.00 | 0.00 | 49 | 1022.0 |
| 20260502200542 | 70 | 46 | 3.0 | 3.0 | 0.00 | 0.00 | 0.00 | 53 | 1022.3 |
| 20260502195039 | 70 | 56 | 2.0 | 2.0 | 0.00 | 0.00 | 0.00 | 53 | 1022.5 |
| 20260502193535 | 69 | 5 | 6.0 | 7.0 | 0.00 | 0.00 | 0.00 | 50 | 1022.5 |
| 20260502192031 | 68 | 358 | 2.0 | 2.0 | 0.00 | 0.00 | 0.00 | 53 | 1022.8 |